Wind_Speed
8 8 8 9 8 9 9 10 10 11 11 11 11 11 12 13 13 13 13 13 13 13 13 13 13 13 13 13 14 15 16 16 17 18 19 19 20 20 21 22 22 23 23
8 8 8 9 9 9 10 11 11 11 11 12 12 13 13 14 13 13 14 14 14 14 14 13 13 13 13 13 15 15 16 17 17 18 19 20 20 20 21 22 23 24 24
8 9 9 9 9 10 11 11 11 12 12 13 13 13 13 14 14 14 14 15 15 14 14 14 14 14 14 14 15 16 17 17 18 18 19 20 21 22 22 24 24 24 24
8 9 10 10 11 11 12 12 12 13 13 14 14 14 14 14 15 15 15 15 15 15 15 15 15 15 15 16 17 17 18 18 18 19 20 20 22 22 23 24 24 24 24
9 9 10 11 11 12 13 13 13 14 14 14 14 14 14 14 15 16 16 16 16 16 16 16 16 16 17 18 19 19 19 19 19 20 20 21 22 22 23 24 24 24 24
10 11 11 12 13 14 14 14 14 15 15 15 15 15 15 15 16 17 17 17 17 17 17 17 17 18 19 19 20 20 20 20 20 21 21 21 22 22 23 23 24 24 25
12 12 13 13 14 15 15 15 15 15 16 16 16 17 17 17 17 17 18 18 18 18 18 18 19 19 19 20 19 19 20 20 21 21 21 22 22 23 23 23 24 24 25
13 14 14 15 15 15 15 16 16 16 17 17 18 18 18 18 18 18 19 19 19 20 20 20 20 20 20 20 21 21 21 21 21 22 22 22 22 23 23 24 24 25 25
15 15 15 16 16 16 16 17 17 18 18 19 19 19 19 19 20 20 21 21 21 21 21 21 21 21 22 22 22 22 22 22 22 22 23 23 23 24 24 25 25 26 26
16 16 16 17 17 18 18 19 19 20 20 21 21 20 20 21 21 22 22 22 22 22 23 22 22 22 22 22 22 22 23 23 23 23 24 24 25 25 26 26 27 27 27
18 18 17 18 19 19 20 20 21 22 22 22 22 22 21 22 22 23 23 23 23 23 23 23 23 23 23 23 23 23 24 24 24 25 25 26 26 26 26 27 27 27 26
20 19 19 20 21 21 22 22 23 23 24 23 23 23 23 23 23 23 23 23 24 24 24 24 24 23 23 24 24 24 24 25 26 26 26 27 27 27 27 28 27 27 26
22 21 21 22 22 23 24 25 25 25 25 25 25 25 25 24 24 24 24 24 24 24 24 24 24 24 24 25 25 25 26 26 27 27 27 27 27 27 28 27 27 26 26
23 24 24 24 25 26 27 27 26 26 27 27 27 26 25 25 24 25 25 25 24 25 25 25 25 25 26 26 26 26 27 27 28 27 27 26 26 26 27 27 26 26 27
25 26 26 27 27 27 28 28 28 28 28 28 28 27 26 26 26 26 26 25 25 25 26 26 26 26 26 26 27 27 27 27 28 28 27 26 26 26 27 27 27 27 27
27 28 28 28 28 29 29 29 29 29 29 29 28 28 28 27 27 26 25 25 25 26 26 26 26 26 27 27 28 28 28 28 28 27 27 27 27 27 27 27 27 28 28
29 29 29 29 28 29 30 30 30 30 30 30 30 30 29 29 28 28 26 26 26 26 27 27 27 28 28 29 28 28 28 28 28 27 28 28 27 27 27 28 28 28 28
30 31 30 30 30 30 30 30 30 30 30 30 30 30 30 30 29 28 27 27 27 27 28 28 29 29 29 29 29 29 29 28 28 28 28 28 28 28 28 28 28 29 29
30 30 30 30 30 30 30 30 30 30 30 30 31 30 30 29 29 28 28 28 28 29 29 29 30 30 30 29 29 29 28 28 28 28 28 28 28 28 28 28 29 29 29
29 29 29 29 29 29 29 30 31 31 30 30 30 30 30 30 30 29 29 29 29 29 30 30 30 30 30 29 28 28 27 27 27 28 28 28 28 28 28 28 29 29 29
30 30 30 30 30 30 30 31 31 30 30 30 30 30 29 29 30 30 30 29 29 29 30 30 30 29 29 29 28 28 28 28 28 28 28 28 28 29 29 29 29 29 29
31 31 31 31 32 32 32 32 31 30 30 30 29 29 29 29 30 30 30 29 29 29 29 29 29 29 29 29 28 28 28 28 28 29 29 29 29 29 29 30 30 29 30
31 31 31 31 31 32 32 31 31 31 31 31 30 29 29 29 29 29 29 30 29 29 29 29 30 30 30 29 28 29 29 28 29 29 29 29 30 30 30 30 31 30 30
30 30 30 30 30 31 31 31 31 31 31 31 30 29 29 29 29 29 30 30 30 29 30 30 30 30 30 29 29 29 28 28 29 29 29 29 30 30 30 31 31 31 31
28 29 29 29 29 29 29 30 30 30 30 29 29 29 29 29 29 29 29 30 29 29 30 30 30 30 29 29 28 29 29 29 29 29 30 30 30 30 31 31 31 31 32
27 28 28 29 29 29 29 29 29 29 29 29 29 30 30 29 29 28 28 29 29 29 29 29 29 29 28 28 28 29 29 30 30 30 30 30 30 31 31 31 31 32 32
Wind_Direction
352 357 359 358 357 358 354 349 348 346 342 339 337 337 335 329 324 324 325 324 323 323 319 317 313 311 308 305 304 303 302 300 297 293 292 294 295 296 296 296 294 294 295
341 342 346 347 348 348 346 344 343 341 340 338 333 330 328 329 325 323 325 323 320 320 319 316 315 311 309 310 309 307 304 302 300 297 295 296 297 297 297 297 297 295 299
329 333 335 336 337 341 342 340 339 337 337 337 335 331 329 328 327 322 323 323 321 319 316 315 315 313 313 312 309 307 307 306 303 301 299 298 298 298 297 298 299 298 299
315 322 327 328 330 332 335 337 337 336 336 337 336 333 330 329 328 326 324 323 321 320 318 315 313 312 310 310 309 309 309 309 305 304 303 301 302 302 300 300 300 299 299
305 310 317 320 324 326 327 328 330 330 330 331 332 331 329 328 328 327 324 323 321 320 320 318 314 311 309 306 306 308 308 307 305 305 305 304 303 303 303 303 302 302 301
299 304 307 312 317 320 321 321 322 324 325 326 326 327 327 328 327 326 325 323 322 320 319 317 314 313 310 309 308 309 308 307 307 307 307 307 306 306 306 305 304 304 303
296 299 304 305 309 313 315 316 317 318 319 320 320 321 321 323 324 324 323 322 322 320 319 317 314 313 312 312 312 311 311 310 310 308 308 308 307 307 307 306 305 306 305
290 293 298 302 304 306 308 310 312 312 313 313 312 314 316 317 319 320 320 319 318 318 317 317 315 314 313 313 311 311 311 311 310 308 309 308 308 309 307 306 306 305 306
288 290 293 297 300 303 305 305 306 307 308 308 308 308 309 310 312 314 315 314 315 315 315 314 315 314 314 313 311 311 311 310 308 308 308 308 308 308 307 306 306 306 306
285 288 291 294 297 299 301 303 304 305 306 306 306 305 305 306 306 308 310 311 311 312 313 313 312 312 311 311 311 310 310 310 309 309 309 308 308 307 307 307 307 306 306
281 286 291 294 296 297 300 303 303 303 303 304 303 303 303 303 304 305 306 307 308 310 311 311 312 311 310 310 309 309 309 309 309 309 308 308 307 307 306 306 306 305 305
282 285 290 293 295 296 298 300 301 301 301 300 300 301 302 302 302 302 303 304 305 307 309 310 310 310 309 308 308 307 307 307 307 308 308 308 307 306 305 305 305 304 304
283 286 289 291 292 294 295 297 297 298 298 297 298 299 300 299 300 300 302 303 303 304 306 307 308 309 308 307 307 306 305 305 306 307 307 308 307 306 305 306 306 305 305
281 283 286 289 290 291 293 294 294 295 296 296 295 297 298 298 299 300 301 302 302 303 304 306 307 307 308 309 308 307 306 306 307 307 307 308 308 308 307 307 306 306 306
281 281 283 286 288 290 291 292 292 293 294 296 296 296 296 297 298 299 301 302 302 302 303 305 306 307 307 308 308 307 307 307 308 308 307 307 307 306 306 305 305 306 306
280 282 283 283 285 288 290 290 291 292 293 294 296 297 298 298 299 299 299 301 301 301 302 304 305 306 307 308 308 308 307 306 306 306 306 306 306 306 306 306 307 307 307
279 281 281 282 283 286 288 288 290 291 292 293 295 296 297 297 297 298 298 298 299 300 302 303 303 304 305 306 306 307 308 308 306 305 305 306 306 306 306 307 307 308 308
279 279 277 278 281 284 286 287 288 289 290 291 293 295 294 295 296 295 296 297 298 299 300 301 302 303 303 304 305 306 306 306 305 305 305 305 306 306 306 307 307 307 308
278 278 278 279 281 282 284 286 288 290 291 291 291 292 294 294 294 294 296 297 298 299 300 301 301 302 302 303 304 305 306 306 305 305 306 307 306 306 307 307 308 308 308
277 278 280 282 282 283 285 288 288 290 291 292 292 292 291 292 293 294 296 296 297 298 299 300 301 301 302 303 303 305 306 306 306 306 306 306 306 307 307 307 307 308 309
275 277 279 281 282 284 285 287 288 288 290 292 292 291 291 291 292 293 294 295 296 298 298 298 299 301 302 302 303 303 303 304 305 305 306 306 306 307 307 307 308 308 309
274 276 278 281 283 284 285 286 287 287 288 290 291 291 290 290 292 292 292 293 295 297 298 299 299 301 303 302 302 302 303 304 305 305 305 306 307 307 307 307 307 308 309
272 275 278 280 282 283 283 284 285 286 287 288 288 289 290 290 291 291 292 293 295 296 297 298 299 299 301 301 300 300 301 303 304 305 305 306 307 307 307 307 308 308 308
271 274 277 279 280 281 283 284 285 286 287 288 288 289 290 290 291 292 291 292 293 294 296 296 298 299 298 299 301 301 301 303 304 305 305 306 306 306 306 308 308 308 308
271 273 276 277 278 280 282 283 284 285 287 288 289 290 290 289 290 291 290 291 293 295 296 297 297 298 297 298 299 301 302 303 304 304 305 304 305 306 307 307 307 308 308
271 273 275 276 277 279 281 283 284 284 286 288 290 291 291 289 289 288 289 291 292 293 295 296 297 298 297 297 299 301 301 302 303 304 304 305 306 307 308 308 307 308 308
Height
5904 5903 5902 5900 5899 5898 5896 5895 5893 5892 5890 5888 5887 5885 5883 5881 5879 5877 5875 5873 5871 5869 5867 5865 5863 5861 5859 5858 5856 5855 5853 5851 5850 5848 5847 5845 5844 5842 5840 5839 5837 5835 5833
5904 5902 5901 5900 5898 5897 5896 5894 5892 5890 5889 5887 5885 5883 5881 5879 5877 5875 5873 5870 5868 5866 5864 5862 5860 5858 5857 5855 5853 5851 5850 5848 5846 5844 5843 5841 5839 5838 5836 5834 5832 5830 5828
5903 5901 5900 5899 5897 5896 5895 5893 5891 5889 5887 5885 5883 5881 5879 5877 5874 5872 5870 5868 5866 5863 5861 5859 5857 5855 5854 5852 5850 5848 5846 5844 5842 5840 5838 5836 5835 5833 5831 5829 5827 5825 5822
5901 5900 5899 5898 5897 5895 5893 5891 5889 5888 5885 5883 5881 5879 5876 5874 5872 5870 5868 5865 5863 5861 5859 5856 5854 5852 5851 5849 5847 5845 5842 5840 5838 5836 5834 5832 5830 5827 5825 5823 5821 5819 5817
5899 5898 5897 5896 5895 5893 5892 5890 5888 5886 5884 5881 5879 5877 5874 5872 5870 5867 5865 5863 5860 5858 5856 5853 5851 5849 5847 5845 5843 5840 5838 5836 5834 5832 5830 5827 5825 5823 5820 5818 5815 5813 5810
5897 5896 5895 5894 5893 5891 5890 5888 5886 5884 5882 5879 5877 5875 5872 5870 5868 5865 5863 5860 5857 5855 5853 5850 5848 5845 5843 5841 5838 5836 5834 5832 5830 5827 5825 5822 5820 5817 5815 5812 5809 5807 5804
5894 5893 5892 5891 5890 5888 5887 5885 5883 5881 5879 5877 5875 5872 5870 5867 5865 5862 5860 5857 5854 5852 5849 5847 5844 5842 5839 5837 5834 5832 5830 5827 5825 5823 5820 5817 5815 5812 5809 5807 5804 5801 5798
5890 5890 5889 5888 5886 5885 5883 5882 5880 5878 5876 5874 5872 5869 5867 5864 5862 5859 5857 5854 5851 5848 5846 5843 5840 5838 5835 5833 5830 5828 5825 5822 5820 5818 5815 5812 5809 5806 5804 5801 5798 5795 5792
5887 5886 5886 5884 5883 5881 5880 5878 5876 5874 5873 5870 5868 5866 5863 5861 5858 5856 5853 5850 5847 5844 5842 5839 5836 5833 5831 5828 5826 5823 5820 5818 5815 5812 5810 5807 5804 5801 5798 5795 5792 5789 5786
5883 5882 5881 5880 5879 5877 5876 5874 5872 5870 5868 5866 5864 5861 5859 5857 5854 5851 5849 5846 5843 5840 5837 5835 5832 5829 5826 5823 5821 5818 5815 5813 5810 5807 5804 5801 5798 5795 5792 5789 5786 5782 5779
5878 5878 5877 5875 5874 5873 5872 5870 5868 5866 5864 5862 5859 5857 5854 5852 5849 5846 5844 5841 5838 5836 5833 5830 5827 5824 5821 5819 5816 5813 5810 5807 5804 5801 5798 5795 5792 5789 5785 5782 5779 5776 5773
5873 5872 5871 5870 5869 5868 5867 5865 5863 5861 5858 5856 5854 5851 5849 5846 5844 5841 5838 5836 5833 5830 5828 5825 5822 5819 5816 5813 5810 5807 5804 5801 5798 5795 5792 5789 5786 5782 5779 5775 5772 5769 5766
5866 5866 5865 5864 5863 5862 5861 5859 5857 5855 5852 5850 5848 5845 5843 5840 5838 5835 5832 5830 5827 5825 5822 5819 5816 5813 5810 5807 5804 5801 5798 5795 5792 5789 5786 5782 5779 5775 5772 5768 5765 5762 5759
5859 5859 5858 5858 5857 5855 5854 5852 5850 5848 5846 5843 5841 5839 5836 5834 5831 5829 5826 5823 5821 5818 5816 5813 5810 5807 5804 5801 5798 5794 5791 5788 5785 5782 5779 5775 5772 5769 5765 5762 5759 5755 5752
5852 5852 5851 5850 5849 5848 5847 5845 5843 5841 5839 5837 5834 5832 5829 5827 5825 5822 5819 5817 5815 5812 5809 5807 5804 5801 5798 5795 5791 5788 5784 5780 5777 5775 5772 5768 5765 5762 5759 5755 5752 5749 5745
5845 5844 5843 5843 5842 5840 5839 5838 5836 5834 5832 5829 5827 5825 5823 5820 5818 5815 5813 5810 5808 5805 5803 5800 5797 5794 5791 5788 5784 5781 5778 5774 5771 5768 5764 5761 5758 5755 5752 5748 5745 5742 5738
5837 5836 5836 5835 5834 5832 5831 5830 5828 5826 5824 5822 5820 5817 5815 5813 5810 5808 5806 5803 5801 5798 5796 5793 5790 5787 5784 5781 5777 5774 5770 5767 5763 5760 5757 5754 5751 5748 5745 5741 5738 5735 5731
5828 5828 5827 5826 5825 5824 5823 5821 5820 5818 5817 5814 5812 5809 5807 5805 5803 5801 5798 5796 5794 5791 5788 5786 5783 5780 5776 5773 5770 5766 5763 5759 5756 5753 5750 5747 5744 5741 5737 5734 5731 5727 5724
5819 5819 5818 5818 5817 5815 5814 5813 5812 5810 5808 5806 5804 5802 5799 5797 5795 5793 5791 5789 5786 5783 5781 5778 5775 5772 5769 5765 5762 5759 5755 5752 5749 5746 5743 5740 5736 5733 5730 5727 5723 5720 5716
5810 5810 5810 5809 5808 5807 5806 5804 5803 5801 5799 5797 5795 5793 5791 5789 5787 5785 5783 5780 5778 5776 5773 5770 5767 5764 5761 5757 5754 5751 5748 5745 5742 5739 5736 5732 5729 5726 5723 5719 5716 5712 5709
5802 5802 5801 5801 5799 5798 5797 5796 5794 5792 5791 5789 5786 5784 5782 5780 5778 5777 5775 5772 5770 5768 5765 5762 5759 5756 5752 5750 5747 5744 5741 5738 5735 5732 5728 5725 5722 5718 5715 5711 5708 5704 5701
5793 5793 5792 5792 5791 5789 5788 5787 5785 5784 5782 5780 5778 5776 5773 5772 5770 5768 5766 5764 5762 5759 5756 5754 5751 5748 5745 5742 5739 5736 5733 5730 5727 5724 5721 5718 5714 5711 5707 5703 5700 5696 5693
5783 5783 5783 5782 5781 5780 5779 5777 5776 5775 5773 5771 5769 5767 5765 5763 5761 5759 5757 5755 5753 5750 5748 5745 5743 5740 5737 5734 5731 5728 5725 5722 5719 5716 5713 5710 5706 5703 5699 5696 5692 5688 5685
5774 5774 5774 5773 5772 5771 5770 5768 5767 5765 5764 5762 5760 5758 5756 5754 5752 5750 5748 5746 5744 5742 5739 5737 5734 5732 5729 5726 5723 5720 5717 5714 5711 5708 5705 5702 5698 5695 5691 5687 5684 5680 5676
5765 5765 5764 5764 5763 5762 5761 5759 5758 5756 5755 5753 5751 5749 5747 5745 5743 5741 5739 5737 5735 5733 5731 5728 5726 5723 5720 5718 5715 5712 5709 5706 5703 5700 5697 5693 5690 5686 5683 5679 5675 5672 5668
5757 5756 5756 5755 5754 5753 5752 5750 5749 5747 5746 5744 5742 5740 5738 5736 5734 5732 5731 5729 5726 5724 5722 5720 5717 5715 5712 5709 5707 5704 5701 5698 5695 5692 5688 5685 5682 5678 5675 5671 5667 5663 5659